<?xml version="1.0" encoding="UTF-8" standalone="no" ?>
<gpx xmlns="http://www.topografix.com/GPX/1/1" xmlns:xsi="http://www.w3.org/2001/XMLSchema-instance" xsi:schemaLocation="http://www.topografix.com/GPX/1/1 http://www.topografix.com/GPX/1/1/gpx.xsd" version="1.1" creator="VisuGPX - https://www.visugpx.com">
  <metadata>
    <name>CONFORT-BERHET</name>
    <desc><![CDATA[Boucle au départ du parking de l\'Eglise de CONFORT]]></desc>
  </metadata>
  <trk>
    <name><![CDATA[Paul]]></name>
    <trkseg>
      <trkpt lat="48.69543" lon="-3.31534">
        <ele>87.6</ele>
        <time>2012-05-03T10:47:23Z</time>
      </trkpt>
      <trkpt lat="48.69601" lon="-3.31523">
        <ele>86.2</ele>
        <time>2012-05-03T10:47:23Z</time>
      </trkpt>
      <trkpt lat="48.69638" lon="-3.31477">
        <ele>84.2</ele>
        <time>2012-05-03T10:47:23Z</time>
      </trkpt>
      <trkpt lat="48.69644" lon="-3.31421">
        <ele>84</ele>
        <time>2012-05-03T10:47:23Z</time>
      </trkpt>
      <trkpt lat="48.69647" lon="-3.31346">
        <ele>83</ele>
        <time>2012-05-03T10:47:23Z</time>
      </trkpt>
      <trkpt lat="48.69655" lon="-3.31271">
        <ele>82.4</ele>
        <time>2012-05-03T10:47:23Z</time>
      </trkpt>
      <trkpt lat="48.69663" lon="-3.31197">
        <ele>81.2</ele>
        <time>2012-05-03T10:47:23Z</time>
      </trkpt>
      <trkpt lat="48.69688" lon="-3.3114">
        <ele>80</ele>
        <time>2012-05-03T10:47:23Z</time>
      </trkpt>
      <trkpt lat="48.69724" lon="-3.31103">
        <ele>80.3</ele>
        <time>2012-05-03T10:47:23Z</time>
      </trkpt>
      <trkpt lat="48.69742" lon="-3.31041">
        <ele>82.2</ele>
        <time>2012-05-03T10:47:23Z</time>
      </trkpt>
      <trkpt lat="48.69757" lon="-3.30977">
        <ele>83</ele>
        <time>2012-05-03T10:47:23Z</time>
      </trkpt>
      <trkpt lat="48.69749" lon="-3.30901">
        <ele>83</ele>
        <time>2012-05-03T10:47:23Z</time>
      </trkpt>
      <trkpt lat="48.69736" lon="-3.3083">
        <ele>85</ele>
        <time>2012-05-03T10:47:23Z</time>
      </trkpt>
      <trkpt lat="48.69723" lon="-3.30756">
        <ele>84.2</ele>
        <time>2012-05-03T10:47:23Z</time>
      </trkpt>
      <trkpt lat="48.69719" lon="-3.30684">
        <ele>83.7</ele>
        <time>2012-05-03T10:47:23Z</time>
      </trkpt>
      <trkpt lat="48.69719" lon="-3.30601">
        <ele>81.2</ele>
        <time>2012-05-03T10:47:23Z</time>
      </trkpt>
      <trkpt lat="48.69703" lon="-3.3053">
        <ele>80.1</ele>
        <time>2012-05-03T10:47:23Z</time>
      </trkpt>
      <trkpt lat="48.69671" lon="-3.30472">
        <ele>80.7</ele>
        <time>2012-05-03T10:47:23Z</time>
      </trkpt>
      <trkpt lat="48.69627" lon="-3.30457">
        <ele>82.2</ele>
        <time>2012-05-03T10:47:23Z</time>
      </trkpt>
      <trkpt lat="48.69591" lon="-3.30412">
        <ele>83</ele>
        <time>2012-05-03T10:47:23Z</time>
      </trkpt>
      <trkpt lat="48.69614" lon="-3.30369">
        <ele>83</ele>
        <time>2012-05-03T10:47:23Z</time>
      </trkpt>
      <trkpt lat="48.69631" lon="-3.30353">
        <ele>82.8</ele>
        <time>2012-05-03T10:47:23Z</time>
      </trkpt>
      <trkpt lat="48.69632" lon="-3.3035">
        <ele>82.7</ele>
        <time>2012-05-03T10:47:23Z</time>
      </trkpt>
      <trkpt lat="48.69625" lon="-3.30356">
        <ele>82.9</ele>
        <time>2012-05-03T10:47:23Z</time>
      </trkpt>
      <trkpt lat="48.69597" lon="-3.30392">
        <ele>83</ele>
        <time>2012-05-03T10:47:23Z</time>
      </trkpt>
      <trkpt lat="48.69622" lon="-3.30443">
        <ele>82.6</ele>
        <time>2012-05-03T10:47:23Z</time>
      </trkpt>
      <trkpt lat="48.69667" lon="-3.30457">
        <ele>81</ele>
        <time>2012-05-03T10:47:23Z</time>
      </trkpt>
      <trkpt lat="48.69711" lon="-3.30461">
        <ele>79.8</ele>
        <time>2012-05-03T10:47:23Z</time>
      </trkpt>
      <trkpt lat="48.6975" lon="-3.30424">
        <ele>79</ele>
        <time>2012-05-03T10:47:23Z</time>
      </trkpt>
      <trkpt lat="48.69792" lon="-3.30394">
        <ele>77.6</ele>
        <time>2012-05-03T10:47:23Z</time>
      </trkpt>
      <trkpt lat="48.69828" lon="-3.30352">
        <ele>76.7</ele>
        <time>2012-05-03T10:47:23Z</time>
      </trkpt>
      <trkpt lat="48.69864" lon="-3.30305">
        <ele>74.1</ele>
        <time>2012-05-03T10:47:23Z</time>
      </trkpt>
      <trkpt lat="48.69906" lon="-3.30281">
        <ele>74.2</ele>
        <time>2012-05-03T10:47:23Z</time>
      </trkpt>
      <trkpt lat="48.69951" lon="-3.30247">
        <ele>73.2</ele>
        <time>2012-05-03T10:47:23Z</time>
      </trkpt>
      <trkpt lat="48.6999" lon="-3.30211">
        <ele>73.1</ele>
        <time>2012-05-03T10:47:23Z</time>
      </trkpt>
      <trkpt lat="48.70032" lon="-3.30178">
        <ele>71.4</ele>
        <time>2012-05-03T10:47:23Z</time>
      </trkpt>
      <trkpt lat="48.70075" lon="-3.30166">
        <ele>70</ele>
        <time>2012-05-03T10:47:23Z</time>
      </trkpt>
      <trkpt lat="48.70123" lon="-3.30162">
        <ele>68.9</ele>
        <time>2012-05-03T10:47:23Z</time>
      </trkpt>
      <trkpt lat="48.7017" lon="-3.30187">
        <ele>68.2</ele>
        <time>2012-05-03T10:47:23Z</time>
      </trkpt>
      <trkpt lat="48.70214" lon="-3.30185">
        <ele>69.2</ele>
        <time>2012-05-03T10:47:23Z</time>
      </trkpt>
      <trkpt lat="48.70257" lon="-3.30166">
        <ele>67.3</ele>
        <time>2012-05-03T10:47:23Z</time>
      </trkpt>
      <trkpt lat="48.70305" lon="-3.30159">
        <ele>63.6</ele>
        <time>2012-05-03T10:47:23Z</time>
      </trkpt>
      <trkpt lat="48.70344" lon="-3.30131">
        <ele>62.4</ele>
        <time>2012-05-03T10:47:23Z</time>
      </trkpt>
      <trkpt lat="48.70375" lon="-3.30081">
        <ele>60</ele>
        <time>2012-05-03T10:47:23Z</time>
      </trkpt>
      <trkpt lat="48.70413" lon="-3.30044">
        <ele>58</ele>
        <time>2012-05-03T10:47:23Z</time>
      </trkpt>
      <trkpt lat="48.70426" lon="-3.29986">
        <ele>58.9</ele>
        <time>2012-05-03T10:47:23Z</time>
      </trkpt>
      <trkpt lat="48.70446" lon="-3.29921">
        <ele>57.5</ele>
        <time>2012-05-03T10:47:23Z</time>
      </trkpt>
      <trkpt lat="48.70467" lon="-3.2986">
        <ele>58.4</ele>
        <time>2012-05-03T10:47:23Z</time>
      </trkpt>
      <trkpt lat="48.70496" lon="-3.2981">
        <ele>60.7</ele>
        <time>2012-05-03T10:47:23Z</time>
      </trkpt>
      <trkpt lat="48.70504" lon="-3.29746">
        <ele>56.9</ele>
        <time>2012-05-03T10:47:23Z</time>
      </trkpt>
      <trkpt lat="48.70497" lon="-3.29686">
        <ele>51.8</ele>
        <time>2012-05-03T10:47:23Z</time>
      </trkpt>
      <trkpt lat="48.70511" lon="-3.29632">
        <ele>51.7</ele>
        <time>2012-05-03T10:47:23Z</time>
      </trkpt>
      <trkpt lat="48.70481" lon="-3.29624">
        <ele>50.8</ele>
        <time>2012-05-03T10:47:23Z</time>
      </trkpt>
      <trkpt lat="48.70438" lon="-3.29633">
        <ele>56.8</ele>
        <time>2012-05-03T10:47:23Z</time>
      </trkpt>
      <trkpt lat="48.70394" lon="-3.29646">
        <ele>61</ele>
        <time>2012-05-03T10:47:23Z</time>
      </trkpt>
      <trkpt lat="48.70352" lon="-3.29625">
        <ele>66.6</ele>
        <time>2012-05-03T10:47:23Z</time>
      </trkpt>
      <trkpt lat="48.70374" lon="-3.29652">
        <ele>62.4</ele>
        <time>2012-05-03T10:47:23Z</time>
      </trkpt>
      <trkpt lat="48.70327" lon="-3.29678">
        <ele>64.6</ele>
        <time>2012-05-03T10:47:23Z</time>
      </trkpt>
      <trkpt lat="48.70283" lon="-3.29674">
        <ele>66.1</ele>
        <time>2012-05-03T10:47:23Z</time>
      </trkpt>
      <trkpt lat="48.70239" lon="-3.2965">
        <ele>66</ele>
        <time>2012-05-03T10:47:23Z</time>
      </trkpt>
      <trkpt lat="48.70205" lon="-3.29663">
        <ele>66.6</ele>
        <time>2012-05-03T10:47:23Z</time>
      </trkpt>
      <trkpt lat="48.70167" lon="-3.29674">
        <ele>68</ele>
        <time>2012-05-03T10:47:23Z</time>
      </trkpt>
      <trkpt lat="48.70127" lon="-3.29698">
        <ele>68.5</ele>
        <time>2012-05-03T10:47:23Z</time>
      </trkpt>
      <trkpt lat="48.70091" lon="-3.29707">
        <ele>69.7</ele>
        <time>2012-05-03T10:47:23Z</time>
      </trkpt>
      <trkpt lat="48.70066" lon="-3.29711">
        <ele>70.3</ele>
        <time>2012-05-03T10:47:23Z</time>
      </trkpt>
      <trkpt lat="48.70024" lon="-3.29729">
        <ele>71.1</ele>
        <time>2012-05-03T10:47:23Z</time>
      </trkpt>
      <trkpt lat="48.69978" lon="-3.29742">
        <ele>73.6</ele>
        <time>2012-05-03T10:47:23Z</time>
      </trkpt>
      <trkpt lat="48.69936" lon="-3.29748">
        <ele>74.4</ele>
        <time>2012-05-03T10:47:23Z</time>
      </trkpt>
      <trkpt lat="48.69892" lon="-3.29762">
        <ele>74.9</ele>
        <time>2012-05-03T10:47:23Z</time>
      </trkpt>
      <trkpt lat="48.69845" lon="-3.29774">
        <ele>75.7</ele>
        <time>2012-05-03T10:47:23Z</time>
      </trkpt>
      <trkpt lat="48.69801" lon="-3.2979">
        <ele>76.6</ele>
        <time>2012-05-03T10:47:23Z</time>
      </trkpt>
      <trkpt lat="48.69758" lon="-3.29804">
        <ele>76.8</ele>
        <time>2012-05-03T10:47:23Z</time>
      </trkpt>
      <trkpt lat="48.69716" lon="-3.29818">
        <ele>78.2</ele>
        <time>2012-05-03T10:47:23Z</time>
      </trkpt>
      <trkpt lat="48.69675" lon="-3.29833">
        <ele>79.7</ele>
        <time>2012-05-03T10:47:23Z</time>
      </trkpt>
      <trkpt lat="48.69633" lon="-3.29831">
        <ele>80.1</ele>
        <time>2012-05-03T10:47:23Z</time>
      </trkpt>
      <trkpt lat="48.69587" lon="-3.29844">
        <ele>80.9</ele>
        <time>2012-05-03T10:47:23Z</time>
      </trkpt>
      <trkpt lat="48.69551" lon="-3.29809">
        <ele>81.9</ele>
        <time>2012-05-03T10:47:23Z</time>
      </trkpt>
      <trkpt lat="48.69509" lon="-3.29801">
        <ele>80.9</ele>
        <time>2012-05-03T10:47:23Z</time>
      </trkpt>
      <trkpt lat="48.6948" lon="-3.29805">
        <ele>80.7</ele>
        <time>2012-05-03T10:47:23Z</time>
      </trkpt>
      <trkpt lat="48.69446" lon="-3.29843">
        <ele>82.3</ele>
        <time>2012-05-03T10:47:23Z</time>
      </trkpt>
      <trkpt lat="48.69409" lon="-3.29875">
        <ele>84</ele>
        <time>2012-05-03T10:47:23Z</time>
      </trkpt>
      <trkpt lat="48.69374" lon="-3.29908">
        <ele>84.5</ele>
        <time>2012-05-03T10:47:23Z</time>
      </trkpt>
      <trkpt lat="48.6933" lon="-3.29906">
        <ele>85.1</ele>
        <time>2012-05-03T10:47:23Z</time>
      </trkpt>
      <trkpt lat="48.69287" lon="-3.29906">
        <ele>85.9</ele>
        <time>2012-05-03T10:47:23Z</time>
      </trkpt>
      <trkpt lat="48.69251" lon="-3.29919">
        <ele>86.1</ele>
        <time>2012-05-03T10:47:23Z</time>
      </trkpt>
      <trkpt lat="48.69209" lon="-3.29925">
        <ele>87.5</ele>
        <time>2012-05-03T10:47:23Z</time>
      </trkpt>
      <trkpt lat="48.69172" lon="-3.2996">
        <ele>88.5</ele>
        <time>2012-05-03T10:47:23Z</time>
      </trkpt>
      <trkpt lat="48.69137" lon="-3.29992">
        <ele>89.1</ele>
        <time>2012-05-03T10:47:23Z</time>
      </trkpt>
      <trkpt lat="48.69091" lon="-3.30006">
        <ele>90</ele>
        <time>2012-05-03T10:47:23Z</time>
      </trkpt>
      <trkpt lat="48.69052" lon="-3.30026">
        <ele>90.2</ele>
        <time>2012-05-03T10:47:23Z</time>
      </trkpt>
      <trkpt lat="48.69012" lon="-3.30009">
        <ele>91.6</ele>
        <time>2012-05-03T10:47:23Z</time>
      </trkpt>
      <trkpt lat="48.68967" lon="-3.29977">
        <ele>92.2</ele>
        <time>2012-05-03T10:47:23Z</time>
      </trkpt>
      <trkpt lat="48.68925" lon="-3.29956">
        <ele>93.4</ele>
        <time>2012-05-03T10:47:23Z</time>
      </trkpt>
      <trkpt lat="48.68879" lon="-3.29953">
        <ele>94</ele>
        <time>2012-05-03T10:47:23Z</time>
      </trkpt>
      <trkpt lat="48.68862" lon="-3.30022">
        <ele>94.8</ele>
        <time>2012-05-03T10:47:23Z</time>
      </trkpt>
      <trkpt lat="48.6884" lon="-3.30083">
        <ele>95.8</ele>
        <time>2012-05-03T10:47:23Z</time>
      </trkpt>
      <trkpt lat="48.68813" lon="-3.30146">
        <ele>97.2</ele>
        <time>2012-05-03T10:47:23Z</time>
      </trkpt>
      <trkpt lat="48.68792" lon="-3.30212">
        <ele>98.8</ele>
        <time>2012-05-03T10:47:23Z</time>
      </trkpt>
      <trkpt lat="48.6878" lon="-3.30278">
        <ele>99</ele>
        <time>2012-05-03T10:47:23Z</time>
      </trkpt>
      <trkpt lat="48.68782" lon="-3.30338">
        <ele>99.1</ele>
        <time>2012-05-03T10:47:23Z</time>
      </trkpt>
      <trkpt lat="48.68826" lon="-3.30355">
        <ele>98.6</ele>
        <time>2012-05-03T10:47:23Z</time>
      </trkpt>
      <trkpt lat="48.68871" lon="-3.30383">
        <ele>99.5</ele>
        <time>2012-05-03T10:47:23Z</time>
      </trkpt>
      <trkpt lat="48.6891" lon="-3.30421">
        <ele>98.6</ele>
        <time>2012-05-03T10:47:23Z</time>
      </trkpt>
      <trkpt lat="48.68951" lon="-3.3045">
        <ele>97</ele>
        <time>2012-05-03T10:47:23Z</time>
      </trkpt>
      <trkpt lat="48.68994" lon="-3.30486">
        <ele>95.1</ele>
        <time>2012-05-03T10:47:23Z</time>
      </trkpt>
      <trkpt lat="48.69036" lon="-3.30492">
        <ele>94.1</ele>
        <time>2012-05-03T10:47:23Z</time>
      </trkpt>
      <trkpt lat="48.69078" lon="-3.30474">
        <ele>93</ele>
        <time>2012-05-03T10:47:23Z</time>
      </trkpt>
      <trkpt lat="48.6912" lon="-3.30472">
        <ele>91.3</ele>
        <time>2012-05-03T10:47:23Z</time>
      </trkpt>
      <trkpt lat="48.69164" lon="-3.30493">
        <ele>91.1</ele>
        <time>2012-05-03T10:47:23Z</time>
      </trkpt>
      <trkpt lat="48.69213" lon="-3.30504">
        <ele>90.1</ele>
        <time>2012-05-03T10:47:23Z</time>
      </trkpt>
      <trkpt lat="48.6926" lon="-3.30509">
        <ele>89.1</ele>
        <time>2012-05-03T10:47:23Z</time>
      </trkpt>
      <trkpt lat="48.69305" lon="-3.30504">
        <ele>89</ele>
        <time>2012-05-03T10:47:23Z</time>
      </trkpt>
      <trkpt lat="48.6935" lon="-3.30513">
        <ele>88.2</ele>
        <time>2012-05-03T10:47:23Z</time>
      </trkpt>
      <trkpt lat="48.69394" lon="-3.30512">
        <ele>87.9</ele>
        <time>2012-05-03T10:47:23Z</time>
      </trkpt>
      <trkpt lat="48.69439" lon="-3.30513">
        <ele>87.1</ele>
        <time>2012-05-03T10:47:23Z</time>
      </trkpt>
      <trkpt lat="48.6947" lon="-3.30553">
        <ele>86.1</ele>
        <time>2012-05-03T10:47:23Z</time>
      </trkpt>
      <trkpt lat="48.69476" lon="-3.30622">
        <ele>85.9</ele>
        <time>2012-05-03T10:47:23Z</time>
      </trkpt>
      <trkpt lat="48.69487" lon="-3.30686">
        <ele>86</ele>
        <time>2012-05-03T10:47:23Z</time>
      </trkpt>
      <trkpt lat="48.69507" lon="-3.30748">
        <ele>86</ele>
        <time>2012-05-03T10:47:23Z</time>
      </trkpt>
      <trkpt lat="48.69508" lon="-3.30817">
        <ele>87</ele>
        <time>2012-05-03T10:47:23Z</time>
      </trkpt>
      <trkpt lat="48.69478" lon="-3.30854">
        <ele>87.2</ele>
        <time>2012-05-03T10:47:23Z</time>
      </trkpt>
      <trkpt lat="48.69461" lon="-3.30924">
        <ele>87.7</ele>
        <time>2012-05-03T10:47:23Z</time>
      </trkpt>
      <trkpt lat="48.69448" lon="-3.30997">
        <ele>87.1</ele>
        <time>2012-05-03T10:47:23Z</time>
      </trkpt>
      <trkpt lat="48.69431" lon="-3.31077">
        <ele>87.1</ele>
        <time>2012-05-03T10:47:23Z</time>
      </trkpt>
      <trkpt lat="48.69449" lon="-3.31115">
        <ele>84.8</ele>
        <time>2012-05-03T10:47:23Z</time>
      </trkpt>
      <trkpt lat="48.6946" lon="-3.31179">
        <ele>84.7</ele>
        <time>2012-05-03T10:47:23Z</time>
      </trkpt>
      <trkpt lat="48.69459" lon="-3.31244">
        <ele>85.8</ele>
        <time>2012-05-03T10:47:23Z</time>
      </trkpt>
      <trkpt lat="48.69451" lon="-3.31311">
        <ele>86.8</ele>
        <time>2012-05-03T10:47:23Z</time>
      </trkpt>
      <trkpt lat="48.69456" lon="-3.31381">
        <ele>87.6</ele>
        <time>2012-05-03T10:47:23Z</time>
      </trkpt>
      <trkpt lat="48.69469" lon="-3.31443">
        <ele>88</ele>
        <time>2012-05-03T10:47:23Z</time>
      </trkpt>
      <trkpt lat="48.69429" lon="-3.31449">
        <ele>88.7</ele>
        <time>2012-05-03T10:47:23Z</time>
      </trkpt>
      <trkpt lat="48.69384" lon="-3.3145">
        <ele>90.4</ele>
        <time>2012-05-03T10:47:23Z</time>
      </trkpt>
      <trkpt lat="48.69344" lon="-3.31469">
        <ele>91.3</ele>
        <time>2012-05-03T10:47:23Z</time>
      </trkpt>
      <trkpt lat="48.6934" lon="-3.31545">
        <ele>92.6</ele>
        <time>2012-05-03T10:47:23Z</time>
      </trkpt>
      <trkpt lat="48.69341" lon="-3.31613">
        <ele>93</ele>
        <time>2012-05-03T10:47:23Z</time>
      </trkpt>
      <trkpt lat="48.69336" lon="-3.31683">
        <ele>93</ele>
        <time>2012-05-03T10:47:23Z</time>
      </trkpt>
      <trkpt lat="48.69348" lon="-3.31735">
        <ele>92.5</ele>
        <time>2012-05-03T10:47:23Z</time>
      </trkpt>
      <trkpt lat="48.69392" lon="-3.3173">
        <ele>92</ele>
        <time>2012-05-03T10:47:23Z</time>
      </trkpt>
      <trkpt lat="48.69435" lon="-3.31726">
        <ele>91.3</ele>
        <time>2012-05-03T10:47:23Z</time>
      </trkpt>
      <trkpt lat="48.69473" lon="-3.31724">
        <ele>91</ele>
        <time>2012-05-03T10:47:23Z</time>
      </trkpt>
      <trkpt lat="48.6951" lon="-3.31748">
        <ele>89.8</ele>
        <time>2012-05-03T10:47:23Z</time>
      </trkpt>
      <trkpt lat="48.69553" lon="-3.31737">
        <ele>87.7</ele>
        <time>2012-05-03T10:47:23Z</time>
      </trkpt>
      <trkpt lat="48.69574" lon="-3.31693">
        <ele>85.7</ele>
        <time>2012-05-03T10:47:23Z</time>
      </trkpt>
      <trkpt lat="48.69565" lon="-3.31632">
        <ele>86.7</ele>
        <time>2012-05-03T10:47:23Z</time>
      </trkpt>
      <trkpt lat="48.69583" lon="-3.31577">
        <ele>86.2</ele>
        <time>2012-05-03T10:47:23Z</time>
      </trkpt>
      <trkpt lat="48.69576" lon="-3.31561">
        <ele>87.1</ele>
        <time>2012-05-03T10:47:23Z</time>
      </trkpt>
      <trkpt lat="48.69574" lon="-3.31559">
        <ele>87.2</ele>
        <time>2012-05-03T10:47:23Z</time>
      </trkpt>
      <trkpt lat="48.69572" lon="-3.31558">
        <ele>87.3</ele>
        <time>2012-05-03T10:47:23Z</time>
      </trkpt>
      <trkpt lat="48.6957" lon="-3.31557">
        <ele>87.4</ele>
        <time>2012-05-03T10:47:23Z</time>
      </trkpt>
      <trkpt lat="48.69568" lon="-3.31557">
        <ele>87.5</ele>
        <time>2012-05-03T10:47:23Z</time>
      </trkpt>
      <trkpt lat="48.69566" lon="-3.31557">
        <ele>87.6</ele>
        <time>2012-05-03T10:47:23Z</time>
      </trkpt>
      <trkpt lat="48.69565" lon="-3.31555">
        <ele>87.7</ele>
        <time>2012-05-03T10:47:23Z</time>
      </trkpt>
      <trkpt lat="48.69565" lon="-3.31553">
        <ele>87.6</ele>
        <time>2012-05-03T10:47:23Z</time>
      </trkpt>
      <trkpt lat="48.69565" lon="-3.31551">
        <ele>87.6</ele>
        <time>2012-05-03T10:47:23Z</time>
      </trkpt>
      <trkpt lat="48.69564" lon="-3.31549">
        <ele>87.5</ele>
        <time>2012-05-03T10:47:23Z</time>
      </trkpt>
      <trkpt lat="48.69564" lon="-3.31547">
        <ele>87.5</ele>
        <time>2012-05-03T10:47:23Z</time>
      </trkpt>
      <trkpt lat="48.69563" lon="-3.31545">
        <ele>87.5</ele>
        <time>2012-05-03T10:47:23Z</time>
      </trkpt>
      <trkpt lat="48.69561" lon="-3.31543">
        <ele>87.4</ele>
        <time>2012-05-03T10:47:23Z</time>
      </trkpt>
      <trkpt lat="48.6956" lon="-3.31541">
        <ele>87.4</ele>
        <time>2012-05-03T10:47:23Z</time>
      </trkpt>
      <trkpt lat="48.69558" lon="-3.3154">
        <ele>87.4</ele>
        <time>2012-05-03T10:47:23Z</time>
      </trkpt>
      <trkpt lat="48.69557" lon="-3.31538">
        <ele>87.3</ele>
        <time>2012-05-03T10:47:23Z</time>
      </trkpt>
      <trkpt lat="48.69555" lon="-3.31536">
        <ele>87.3</ele>
        <time>2012-05-03T10:47:23Z</time>
      </trkpt>
      <trkpt lat="48.69553" lon="-3.31534">
        <ele>87.3</ele>
        <time>2012-05-03T10:47:23Z</time>
      </trkpt>
      <trkpt lat="48.69551" lon="-3.31533">
        <ele>87.3</ele>
        <time>2012-05-03T10:47:23Z</time>
      </trkpt>
      <trkpt lat="48.69549" lon="-3.31531">
        <ele>87.3</ele>
        <time>2012-05-03T10:47:23Z</time>
      </trkpt>
      <trkpt lat="48.69547" lon="-3.31529">
        <ele>87.3</ele>
        <time>2012-05-03T10:47:23Z</time>
      </trkpt>
      <trkpt lat="48.69547" lon="-3.31527">
        <ele>87.3</ele>
        <time>2012-05-03T10:47:23Z</time>
      </trkpt>
      <trkpt lat="48.69547" lon="-3.31527">
        <ele>87.3</ele>
        <time>2012-05-03T10:47:23Z</time>
      </trkpt>
    </trkseg>
  </trk>
</gpx>